Tracking 17147 objects as of 3-July-2015
HD Live streaming from Space Station

COSMOS 2315

Track COSMOS 2315 now!
10-day predictions
COSMOS 2315 is classified as:


NORAD ID: 23603
Int'l Code: 1995-032A
Perigee: 973.7 km
Apogee: 1,019.7 km
Inclination: 82.9 °
Period: 104.9 minutes
Semi major axis: 7367 km
RCS: 2.3448 m2 (large)
Launch date: July 5, 1995
Source: Commonwealth of Independent States (former USSR) (CIS)
Your satellite tracking list
Your tracking list is empty





NASA's NSSDC Master Catalog

Two Line Element Set (TLE):
1 23603U 95032A   15184.00399358  .00000010  00000-0 -61616-5 0  9996
2 23603 082.9037 341.8682 0031202 169.9136 309.5974 13.72800521  1771

Source of the keplerian elements: AFSPC

N2YO: 278